Powrót do katalogu

STARLINK-4689

AktywnyŁącznośćVLEO
NORAD 53590·PAYLOAD·🇺🇸 United States

Wystrzelony Aug 28, 2022 z Cape Canaveral Space Force Station

Loading…

Następne Przeloty (najbliższe 24 godziny)

TLE

ŚwieżeSource: CelesTrak SupGP

Epoka: Sep 14, 2026, 21:21 UTC

1 53590C 22104C   26257.89006944  .00028820  00000+0  92683-3 0  2570
2 53590  53.1601  78.1545 0001344  77.0794 310.1835 15.31685894    18

Śledź STARLINK-4689 w czasie rzeczywistym z AllMySat

Download on the App Store